User: anonymous   Login
Location: Castiglione Fibocchi
(43.5333°N, 11.7667°E)
Time: 05:32:35
(UTC+00:00)
Language:

Cosmos 2142 Rocket - Orbit

View from above orbital plane
View from above orbital plane
View from above satellite
View from above satellite

Ground track
Ground track

The orbit data is extracted from the following two-line orbital elements,

1 21231U 91029B   20304.31361480 +.00000050 +00000-0 +35923-4 0  9996
2 21231 082.9490 276.6529 0036063 032.0829 075.4638 13.75821334482804
Epoch (UTC): 30 October 2020 07:31:36
Eccentricity: 0.0036063
inclination: 82.9490°
perigee height: 952 km
apogee height: 1005 km
right ascension of ascending node: 276.6529°
argument of perigee: 32.0829°
revolutions per day: 13.75821334
mean anomaly at epoch: 75.4638°
orbit number at epoch: 48280

The dashed part of the orbit path shows where the satellite is in the earth's shadow,  

DLR